Regional Weather Roundup
Issued by NWS Charleston, SC

Current Version | Previous Version | Text Only | Print | Product List | Glossary Off
Versions: 1 2 3 4 5 6 7 8 9 10 11 12 13 14 15 16 17 18 19 20 21 22 23 24 25 26 27 28 29 30 31 32 33 34 35 36 37 38 39 40 41 42 43 44 45 46 47 48 49 50

000
ASUS42 KCHS 260925
RWRCHS

REGIONAL WEATHER ROUNDUP
NATIONAL WEATHER SERVICE CHARLESTON SC
400 AM EST MON JAN 26 2015

NOTE: "FAIR" INDICATES FEW OR NO CLOUDS BELOW 12,000 FEET WITH NO
SIGNIFICANT WEATHER AND/OR OBSTRUCTIONS TO VISIBILITY.

NOT ALL STATIONS ARE QUALITY CONTROLLED BY THE NATIONAL
WEATHER SERVICE. USE DATA WITH CAUTION...ESPECIALLY
DEWPOINT OBSERVATIONS.

SCZ027-030-031-034>040-042>050-261000-
...SOUTHEAST SOUTH CAROLINA...

CITY           SKY/WX    TMP DP  RH WIND       PRES   REMARKS
N CHARLESTON   MOCLDY    51  46  83 SW10      29.74F
WATERFRONT PRK   N/A     54 N/A N/A SW9         N/A
MOUNT PLEASANT FAIR     N/A N/A N/A SW8       29.73F
PINOPOLIS      NOT AVBL
MONCKS CORNER  FAIR      50  45  81 S9        29.72F
SUMMERVILLE    FAIR      45  45 100 S3        29.74F
BEAUFORT MCAS  PTCLDY    51  46  83 SW10      29.74F
BEAUFORT ARPT  FAIR      52  48  87 SW6       29.74F
HILTON HEAD IS MOCLDY    52  48  87 S7        29.77S
WALTERBORO     MOSUNNY   48 N/A N/A SW6       29.74F
ALLENDALE        N/A     46  43  87 CALM      29.71F

...SOUTHERN MIDLANDS AND PEE DEE...

CITY           SKY/WX    TMP DP  RH WIND       PRES   REMARKS
GEORGETOWN     NOT AVBL
KINGSTREE      NOT AVBL
ORANGEBURG     PTCLDY    42  37  82 S3        29.71F
BARNWELL         N/A     43  39  87 SW3       29.71F
AIKEN          FAIR      43  37  81 SW5       29.71F
MANNING        NOT AVBL
COLUMBIA       PTCLDY    44  36  73 SW5       29.68F
SUMTER         CLEAR     43  38  84 S8        29.67F
FLORENCE       MOCLDY    44  40  85 S8        29.71F
MYRTLE BEACH   PTCLDY    52  43  71 SW7       29.74F
N MYRTLE BEACH PTCLDY    49  45  86 SW10      29.73F

$$

GAZ063-065-086>088-099>101-113>116-118-119-134>141-150-261000-
...SOUTHEAST GEORGIA...

CITY           SKY/WX    TMP DP  RH WIND       PRES   REMARKS
SAVANNAH ARPT  CLOUDY    49  44  83 SW8       29.76F
HUNTER AAF     CLOUDY    50  47  88 SW7       29.74F
FORT STEWART   CLOUDY    48  45  88 SW5       29.75F
STATESBORO     PTCLDY    46  46 100 W5        29.74F
SYLVANIA       MOSUNNY   43  43 100 SW5       29.73F
CLAXTON        FAIR      43  43 100 CALM      29.74F

...CSRA...CENTRAL AND FAR SOUTHEAST GEORGIA...

CITY           SKY/WX    TMP DP  RH WIND       PRES   REMARKS
THOMSON        CLEAR     47  42  84 SW6       29.74F
AUGUSTA-BUSH   MOCLDY    46  40  79 W8        29.71F
AUGUSTA-DANIEL PTCLDY    49  39  68 W6        29.70F
SWAINSBORO     FAIR      45  45 100 CALM      29.74F
VIDALIA        CLEAR     45  45 100 SW5       29.75F
EASTMAN        FAIR      48  48 100 W6        29.79F
HAZLEHURST     FAIR      49  49 100 W5        29.75F
ALMA           CLEAR     47  45  93 W3        29.77F
WAYCROSS       PTCLDY    49  48  97 SW7       29.77F
JESUP          FAIR      50  46  87 SW5       29.77F
BAXLEY         FAIR      50  46  87 W6        29.75F
BRUNSWICK      CLOUDY    54  46  76 SW8       29.77F
SAINT SIMONS   CLOUDY    52  48  86 SW8       29.76F

$$

SCZ027-028-034-036>038-045-046-048>050-GAZ119-141-261000-
...LAKE AND SUPPLEMENTAL COASTAL OBSERVATIONS...

STATION/POSITION TIME  TEMP    WIND        PRES    WAVE   SWELL
                       AIR SEA DIR/SP/G            HT/PER HT/PER/DIR
                 (UTC) (F)     (DEG/KT/KT) (MB)    (FT/S) (FT/S/D)
UPR LAKE MARION  NOT AVBL
WINYAH BAY       0900   51     230/  7     1006.0S
LAKE MURRAY      0900   48     230/ 11/ 14 1004.4F
ACE BASIN NERRS  NOT AVBL
FORT PULASKI     0900   52 53  200/  7/  8 1008.2F
SAPELO ISLAND    0900   51     200/  9     1008.0S

$$

ANZ835-935-AMZ111-154-330-350-352-354-370-450-454-472-261000-
...C-MAN AND BUOY OBSERVATIONS...

STATION/POSITION TIME  TEMP    WIND        PRES    WAVE   SWELL
                       AIR SEA DIR/SP/G            HT/PER HT/PER/DIR
                 (UTC) (F)     (DEG/KT/KT) (MB)    (FT/S) (FT/S/D)
BUOY 41004       0900   62 69  240/ 21/ 27 1006.8F   7/ 6
BUOY 41008       0900   56 55  220/ 17/ 19 1008.2F   4/ 6
FOLLY BEACH CMAN 0900   54     240/  9/ 11 1007.5F
CAPERS NEARSHORE 0800   55     240/ 17/ 19   N/A
FRIPP NEARSHORE  0800   55     220/ 16/ 19   N/A


STATION/POSITION TIME  TEMP    WIND        PRES    WAVE   SWELL
                       AIR SEA DIR/SP/G            HT/PER HT/PER/DIR
                 (UTC) (F)     (DEG/KT/KT) (MB)    (FT/S) (FT/S/D)
5E ST. MARYS GA  0900      58                N/A     3/ 4
FRYING PAN BUOY  0900   62 67  230/ 17/ 21 1007.4F   6/ 6   2/ 60/11
BUOY 41025       0900   64 70  230/ 12/ 14 1006.9F   4/ 8   3/ 70/ 8
CAPE LOOKOUT NC  0900   52     280/  8/  9 1007.3F
BUOY 41002       0807   69 72  240/ 12/ 16 1010.4F   5/ 7   3/240/ 7
BUOY 41010       0900   67 76  260/ 17/ 23 1011.7R   4/10   2/ 20/10
ST AUGUSTINE FL  0900   54     210/  6/  8 1010.5R


$$


USA.gov is the U.S. government's official web portal to all federal, state and local government web resources and services.